Find Starlink 32046

NORAD ID: 60198 Int'l Des: 2024-124 Owner: SPXS Country: US Constellation: starlink operational
LEOCIRCULAR

当前视图

正在加载3D地球...

About Starlink 32046

Starlink 32046 (NORAD 60198) is a starlink constellation satellite (v2 mini) launched Jul 3, 2024 by SPXS of US. It operates in LEO, CIRCULAR orbit with a mass of 730.00 kg.

关于 Starlink 32046

正在加载描述...

即将过境

Passes for default location (London). Set your location on the main map for personalized predictions.

高度历史

Loading altitude history...

两行轨道根数

1 60198U 24124R 26191.21993883 -.00001000 00000-0 -20482-4 0 9992
2 60198 53.1607 112.7863 0001131 113.7875 246.3245 15.31693817114291
Epoch: Jul 10, 2026 • Age: 45 hours

当前状态

高度 472.3 km
远地点 / 近地点 N/A
速度 7.63 km/s
星下点 -1.92°S, 132.29°E
发射日期 Jul 3, 2024
运行时间 2 years
类型 internet

技术详情

分类 Payload
质量 730.00 kg
干质量 700.00 kg
总质量 730.00 kg
长度 0.30 m
直径 4.10 m
跨度 29.00 m
形状 Box + pan
制造商 SPXS
平台类型 Starlink V2M
阶段状态 In Orbit
所有者/国家 SPXS/US

Most Searched